Погода в Юливиеска

Финляндия     64°03′54″N   24°32′57″E
темп.,
°C
ветер,
м/с
пор.,
м/с
влажн.,
%
обл.,
%
осадки,
мм/ч
давл.,
гПа
погр.,
м
8 декабря, ср
ср823:00−17св1110072 0.0 102010
02:00−18ссз119962 0.0 102010
05:00−18сз119960 0.0 102011
08:00−18з119960 0.0 102118
11:00−17з119854 0.0 102216
14:00−17зюз119858 0.0 102213
17:00−17юз119970 0.0 102316
20:00−17ююз119961 0.0 102314
9 декабря, чт
чт923:00−17ююз119852 0.0 102510
02:00−17ю119857 0.0 102525
05:00−16ю239832 0.0 102548
08:00−15ююв259646 0.0 102576
11:00−13ююв2790100 0.0 1025139
14:00−12ююв3891100 0.0 1024158
17:00−11ююв3109554 0.0 1024217
20:00−10ю31193100 0.0 1024245
10 декабря, пт
пт1023:00−10ююв3119399 0.0 1024250
02:00−9ююв4148891 0.0 1023336
05:00−9ююв41583100 0.0 1021380
08:00−8ююв41577100 0.0 1021472
11:00−8ююв51674100 0.0 1020500
14:00−8ююв51572100 0.0 1020483
17:00−7юв51473100 0.0 1019475
20:00−7юв41292100 0.2 1019428
11 декабря, сб
сб1123:00−6юв41193100 0.2 1019408
02:00−5юв31195100 0.8 1019400
05:00−4юв31096100 0.7 1019359
08:00−4юв31094100 1.1 1019368
11:00−3юв31196100 0.6 1019407
14:00−3юв3994100 1.2 1020356
17:00−3юв3994100 0.4 1020321
20:00−3юв3996100 0.6 1020307
12 декабря, вс
вс1223:00−3юв3894100 0.1 1020286
02:00−3юв3896100 0.3 1020288
05:00−2юв2896100 0.2 1020272
08:00−2юв2798100 0.4 1018241
11:00−1юв31098100 0.3 1017402
14:00−1юв3998100 2.9 1016434
17:00−1ююв3898100 1.8 1015416
20:00−2ююв3897100 2.8 1015356